SWR1211 ENGM-LSZH

Flight info

Callsign SWR1211
Flight time 1h 53m
Altitude 41000
Route VIPPA DCT AMRAK/N0489F400 DCT SWALM DCT OMOGI/N0491F410 T721 RILAX
Aircraft A359/H-SDE2E3GHIJ3J4J5LM1ORWXY/LB1D1

Departure

Time 2026-05-06 12:20
Airport Oslo-Gardermoen International Airport (ENGM)

Arrival

Time 2026-05-06 14:13
Airport Zürich Airport (LSZH)
Time Latitude Longitude Altitude Speed Heading
2026-05-06 12:20 60.12236 10.87043 10764 ft 290 kts 245°
2026-05-06 12:20 60.11384 10.83353 11944 ft 294 kts 246°
2026-05-06 12:21 60.10509 10.79565 12841 ft 307 kts 246°
2026-05-06 12:21 60.09579 10.75543 13364 ft 331 kts 246°
2026-05-06 12:21 60.08572 10.71188 13751 ft 358 kts 246°
2026-05-06 12:21 60.07487 10.66517 14113 ft 378 kts 246°
2026-05-06 12:22 60.06188 10.61908 14555 ft 383 kts 237°
2026-05-06 12:22 60.04350 10.57907 15353 ft 399 kts 223°
2026-05-06 12:22 60.01972 10.54933 16332 ft 411 kts 208°
2026-05-06 12:22 59.99197 10.53252 17424 ft 422 kts 197°
2026-05-06 12:23 59.96287 10.52246 18499 ft 426 kts 195°
2026-05-06 12:23 59.93351 10.51317 19498 ft 427 kts 195°
2026-05-06 12:23 59.90421 10.50378 20524 ft 427 kts 195°
2026-05-06 12:23 59.87496 10.49427 21583 ft 425 kts 196°
2026-05-06 12:24 59.84593 10.48476 22697 ft 421 kts 196°
2026-05-06 12:24 59.81711 10.47528 23781 ft 417 kts 197°
2026-05-06 12:24 59.78859 10.46584 24513 ft 418 kts 197°
2026-05-06 12:24 59.75972 10.45625 25019 ft 423 kts 197°
2026-05-06 12:25 59.73046 10.44650 25468 ft 429 kts 196°
2026-05-06 12:25 59.70086 10.43667 25968 ft 435 kts 196°
2026-05-06 12:25 59.67081 10.42674 26492 ft 439 kts 196°
2026-05-06 12:25 59.64055 10.41679 27017 ft 443 kts 196°
2026-05-06 12:26 59.60995 10.40675 27552 ft 446 kts 196°
2026-05-06 12:26 59.57928 10.39671 28104 ft 448 kts 196°
2026-05-06 12:26 59.54844 10.38641 28660 ft 449 kts 196°
2026-05-06 12:26 59.51768 10.37595 29245 ft 450 kts 196°
2026-05-06 12:27 59.48687 10.36551 29815 ft 449 kts 196°
2026-05-06 12:27 59.45603 10.35509 30301 ft 448 kts 196°
2026-05-06 12:27 59.43571 10.34825 30633 ft 447 kts 196°
2026-05-06 12:27 59.39483 10.33452 31314 ft 445 kts 196°
2026-05-06 12:28 59.36435 10.32431 31834 ft 444 kts 196°
2026-05-06 12:28 59.34417 10.31755 32183 ft 443 kts 196°
2026-05-06 12:28 59.30362 10.30401 32779 ft 443 kts 196°
2026-05-06 12:28 59.28351 10.29727 32911 ft 446 kts 196°
2026-05-06 12:29 59.25275 10.28699 33068 ft 450 kts 196°
2026-05-06 12:29 59.22177 10.27669 33303 ft 452 kts 195°
2026-05-06 12:29 59.19081 10.26644 33512 ft 451 kts 195°
2026-05-06 12:29 59.15965 10.25815 33825 ft 453 kts 192°
2026-05-06 12:30 59.12821 10.25330 34092 ft 453 kts 190°
2026-05-06 12:30 59.09670 10.24911 34264 ft 455 kts 190°
2026-05-06 12:30 59.06507 10.24495 34413 ft 456 kts 190°
2026-05-06 12:30 59.03334 10.24074 34553 ft 457 kts 190°
2026-05-06 12:31 59.00160 10.23651 34748 ft 457 kts 190°
2026-05-06 12:31 58.96986 10.23226 34892 ft 458 kts 190°
2026-05-06 12:31 58.93801 10.22798 35025 ft 459 kts 190°
2026-05-06 12:31 58.90607 10.22369 35116 ft 460 kts 189°
2026-05-06 12:32 58.87407 10.21953 35227 ft 461 kts 189°
2026-05-06 12:32 58.84197 10.21543 35371 ft 462 kts 189°
2026-05-06 12:32 58.80988 10.21135 35505 ft 463 kts 189°
2026-05-06 12:32 58.77776 10.20727 35645 ft 463 kts 189°
2026-05-06 12:33 58.74559 10.20317 35753 ft 464 kts 189°
2026-05-06 12:33 58.71331 10.19905 35883 ft 465 kts 189°
2026-05-06 12:33 58.68101 10.19492 36004 ft 466 kts 189°
2026-05-06 12:33 58.64860 10.19078 36119 ft 467 kts 189°
2026-05-06 12:34 58.58372 10.18251 36295 ft 468 kts 189°
2026-05-06 12:34 58.55119 10.17838 36418 ft 469 kts 189°
2026-05-06 12:34 58.51862 10.17425 36540 ft 469 kts 189°
2026-05-06 12:35 58.48605 10.17014 36663 ft 469 kts 189°
2026-05-06 12:35 58.45344 10.16602 36771 ft 470 kts 189°
2026-05-06 12:35 58.42079 10.16191 36872 ft 471 kts 189°
2026-05-06 12:35 58.38807 10.15779 36994 ft 471 kts 188°
2026-05-06 12:36 58.35538 10.15368 37107 ft 472 kts 188°
2026-05-06 12:36 58.32264 10.14958 37211 ft 472 kts 188°
2026-05-06 12:36 58.28981 10.14547 37319 ft 473 kts 188°
2026-05-06 12:36 58.25698 10.14137 37431 ft 473 kts 188°
2026-05-06 12:37 58.19161 10.13323 37624 ft 474 kts 188°
2026-05-06 12:37 58.12573 10.12506 37817 ft 475 kts 188°
2026-05-06 12:38 58.09271 10.12097 37920 ft 476 kts 188°
2026-05-06 12:38 58.05973 10.11690 37977 ft 476 kts 188°
2026-05-06 12:38 58.02670 10.11283 38090 ft 476 kts 188°
2026-05-06 12:38 57.99359 10.10876 38191 ft 476 kts 188°
2026-05-06 12:39 57.92748 10.10065 38375 ft 477 kts 188°
2026-05-06 12:39 57.86125 10.09255 38562 ft 477 kts 188°
2026-05-06 12:40 57.79480 10.08445 38667 ft 478 kts 188°
2026-05-06 12:40 57.72854 10.07642 38836 ft 477 kts 188°
2026-05-06 12:41 57.66219 10.06840 38967 ft 478 kts 188°
2026-05-06 12:41 57.59589 10.06041 39087 ft 478 kts 188°
2026-05-06 12:42 57.52948 10.05244 39212 ft 478 kts 188°
2026-05-06 12:42 57.46300 10.04449 39298 ft 479 kts 187°
2026-05-06 12:43 57.39656 10.03658 39425 ft 479 kts 187°
2026-05-06 12:43 57.33005 10.02868 39533 ft 479 kts 187°
2026-05-06 12:44 57.26349 10.02080 39647 ft 479 kts 187°
2026-05-06 12:44 57.19695 10.01295 39719 ft 480 kts 187°
2026-05-06 12:45 57.13072 10.00518 39827 ft 480 kts 187°
2026-05-06 12:45 57.06364 9.99733 39938 ft 480 kts 187°
2026-05-06 12:46 57.03076 9.99349 39987 ft 480 kts 187°
2026-05-06 12:46 56.96406 9.98573 40057 ft 480 kts 187°
2026-05-06 12:47 56.89733 9.97799 40138 ft 481 kts 187°
2026-05-06 12:47 56.83059 9.97027 40234 ft 481 kts 187°
2026-05-06 12:48 56.76387 9.96259 40314 ft 481 kts 187°
2026-05-06 12:48 56.69703 9.95491 40381 ft 481 kts 187°
2026-05-06 12:49 56.63022 9.94727 40446 ft 482 kts 187°
2026-05-06 12:49 56.56334 9.93966 40529 ft 482 kts 187°
2026-05-06 12:50 56.49644 9.93207 40610 ft 482 kts 187°
2026-05-06 12:50 56.42948 9.92449 40665 ft 482 kts 187°
2026-05-06 12:51 56.36245 9.91692 40716 ft 483 kts 187°
2026-05-06 12:51 56.29542 9.90941 40783 ft 483 kts 187°
2026-05-06 12:52 56.22839 9.90191 40866 ft 483 kts 187°
2026-05-06 12:52 56.16181 9.89448 40910 ft 483 kts 186°
2026-05-06 12:53 56.09468 9.88701 40923 ft 483 kts 186°
2026-05-06 12:53 56.02765 9.87959 40923 ft 483 kts 186°
2026-05-06 12:54 55.96063 9.87220 40926 ft 482 kts 186°
2026-05-06 12:54 55.89364 9.86483 40915 ft 482 kts 186°
2026-05-06 12:55 55.82661 9.85748 40925 ft 483 kts 186°
2026-05-06 12:55 55.75948 9.85014 40925 ft 483 kts 186°
2026-05-06 12:56 55.69247 9.84285 40922 ft 483 kts 186°
2026-05-06 12:56 55.62535 9.83558 40922 ft 483 kts 186°
2026-05-06 12:57 55.55837 9.82833 40922 ft 483 kts 186°
2026-05-06 12:57 55.49121 9.82109 40922 ft 483 kts 186°
2026-05-06 12:58 55.42420 9.81389 40922 ft 483 kts 186°
2026-05-06 12:58 55.35712 9.80671 40915 ft 483 kts 186°
2026-05-06 12:59 55.29003 9.79955 40916 ft 483 kts 186°
2026-05-06 12:59 55.22287 9.79242 40914 ft 483 kts 186°
2026-05-06 13:00 55.15581 9.78531 40911 ft 483 kts 186°
2026-05-06 13:00 55.08868 9.77822 40911 ft 483 kts 186°
2026-05-06 13:01 55.02154 9.77116 40914 ft 483 kts 186°
2026-05-06 13:01 54.95442 9.76412 40911 ft 483 kts 186°
2026-05-06 13:02 54.88725 9.75710 40911 ft 483 kts 186°
2026-05-06 13:02 54.82010 9.75010 40899 ft 484 kts 186°
2026-05-06 13:03 54.75302 9.74131 40896 ft 483 kts 187°
2026-05-06 13:03 54.68603 9.73095 40892 ft 483 kts 187°
2026-05-06 13:04 54.61904 9.72080 40887 ft 483 kts 187°
2026-05-06 13:04 54.55197 9.71100 40879 ft 483 kts 187°
2026-05-06 13:05 54.48495 9.70137 40885 ft 483 kts 187°
2026-05-06 13:05 54.41785 9.69178 40882 ft 484 kts 187°
2026-05-06 13:06 54.35080 9.68221 40877 ft 484 kts 187°
2026-05-06 13:06 54.28422 9.67273 40883 ft 483 kts 187°
2026-05-06 13:07 54.21677 9.66315 40885 ft 483 kts 187°
2026-05-06 13:07 54.15015 9.65373 40879 ft 483 kts 187°
2026-05-06 13:08 54.08308 9.64427 40877 ft 483 kts 187°
2026-05-06 13:08 54.01599 9.63484 40876 ft 483 kts 187°
2026-05-06 13:09 53.94898 9.62545 40872 ft 483 kts 187°
2026-05-06 13:09 53.88194 9.61609 40867 ft 483 kts 187°
2026-05-06 13:10 53.81489 9.60675 40871 ft 484 kts 187°
2026-05-06 13:10 53.74780 9.59744 40867 ft 484 kts 187°
2026-05-06 13:11 53.68070 9.58816 40877 ft 484 kts 187°
2026-05-06 13:11 53.61358 9.57889 40878 ft 484 kts 187°
2026-05-06 13:12 53.54653 9.56968 40871 ft 483 kts 187°
2026-05-06 13:12 53.47955 9.56051 40871 ft 483 kts 187°
2026-05-06 13:13 53.41258 9.55137 40851 ft 483 kts 187°
2026-05-06 13:13 53.34565 9.54226 40844 ft 483 kts 187°
2026-05-06 13:14 53.27864 9.53316 40858 ft 483 kts 187°
2026-05-06 13:14 53.21177 9.52401 40847 ft 482 kts 187°
2026-05-06 13:15 53.15611 9.51652 40846 ft 483 kts 187°
2026-05-06 13:15 53.08917 9.50757 40846 ft 483 kts 187°
2026-05-06 13:16 53.02215 9.49862 40843 ft 483 kts 187°
2026-05-06 13:16 52.95517 9.48967 40841 ft 483 kts 187°
2026-05-06 13:17 52.88818 9.48074 40840 ft 483 kts 187°
2026-05-06 13:17 52.82126 9.47184 40833 ft 483 kts 187°
2026-05-06 13:18 52.75419 9.46296 40836 ft 483 kts 187°
2026-05-06 13:18 52.68713 9.45410 40832 ft 483 kts 187°
2026-05-06 13:19 52.62006 9.44528 40820 ft 483 kts 186°
2026-05-06 13:19 52.55304 9.43648 40832 ft 483 kts 186°
2026-05-06 13:20 52.48640 9.42777 40832 ft 483 kts 186°
2026-05-06 13:20 52.41938 9.41903 40825 ft 483 kts 186°
2026-05-06 13:21 52.35235 9.41031 40829 ft 483 kts 186°
2026-05-06 13:21 52.28535 9.40162 40827 ft 483 kts 186°
2026-05-06 13:22 52.21832 9.39296 40819 ft 483 kts 186°
2026-05-06 13:22 52.15126 9.38432 40821 ft 483 kts 186°
2026-05-06 13:23 52.08427 9.37571 40800 ft 483 kts 186°
2026-05-06 13:23 52.01733 9.36714 40806 ft 483 kts 186°
2026-05-06 13:24 51.95040 9.35860 40797 ft 483 kts 186°
2026-05-06 13:24 51.88342 9.35007 40790 ft 483 kts 186°
2026-05-06 13:25 51.81645 9.34157 40789 ft 483 kts 186°
2026-05-06 13:25 51.74954 9.33311 40787 ft 483 kts 186°
2026-05-06 13:26 51.68255 9.32465 40774 ft 483 kts 186°
2026-05-06 13:26 51.61558 9.31622 40774 ft 482 kts 186°
2026-05-06 13:27 51.54875 9.30784 40769 ft 482 kts 186°
2026-05-06 13:27 51.48195 9.29948 40773 ft 481 kts 186°
2026-05-06 13:28 51.41520 9.29116 40759 ft 481 kts 186°
2026-05-06 13:28 51.34833 9.28285 40757 ft 482 kts 186°
2026-05-06 13:29 51.28149 9.27456 40746 ft 482 kts 186°
2026-05-06 13:29 51.21467 9.26629 40746 ft 482 kts 186°
2026-05-06 13:30 51.14826 9.25811 40744 ft 482 kts 186°
2026-05-06 13:30 51.08141 9.24989 40746 ft 482 kts 186°
2026-05-06 13:31 51.01440 9.24169 40748 ft 482 kts 186°
2026-05-06 13:31 50.94744 9.23350 40739 ft 482 kts 186°
2026-05-06 13:32 50.88054 9.22536 40754 ft 482 kts 186°
2026-05-06 13:32 50.81356 9.21722 40746 ft 483 kts 186°
2026-05-06 13:33 50.74664 9.20911 40737 ft 483 kts 186°
2026-05-06 13:33 50.67975 9.20005 40738 ft 482 kts 188°
2026-05-06 13:34 50.61332 9.18578 40741 ft 482 kts 189°
2026-05-06 13:34 50.54694 9.17070 40741 ft 482 kts 189°
2026-05-06 13:35 50.48052 9.15643 40745 ft 482 kts 189°
2026-05-06 13:35 50.41387 9.14264 40746 ft 483 kts 189°
2026-05-06 13:36 50.34762 9.12907 40750 ft 483 kts 189°
2026-05-06 13:36 50.28096 9.11544 40745 ft 483 kts 189°
2026-05-06 13:37 50.21443 9.10186 40754 ft 481 kts 189°
2026-05-06 13:37 50.14802 9.08832 40758 ft 481 kts 189°
2026-05-06 13:38 50.08172 9.07484 40758 ft 481 kts 189°
2026-05-06 13:38 50.01535 9.06139 40764 ft 480 kts 189°
2026-05-06 13:39 49.94929 9.04804 40766 ft 480 kts 189°
2026-05-06 13:39 49.88307 9.03469 40771 ft 479 kts 189°
2026-05-06 13:40 49.81687 9.02139 40772 ft 480 kts 188°
2026-05-06 13:40 49.75052 9.00810 40772 ft 481 kts 188°
2026-05-06 13:41 49.68407 8.99481 40769 ft 481 kts 188°
2026-05-06 13:41 49.61773 8.98061 40771 ft 481 kts 191°
2026-05-06 13:42 49.55221 8.96215 40780 ft 482 kts 192°
2026-05-06 13:42 49.48629 8.94296 40780 ft 482 kts 192°
2026-05-06 13:43 49.42039 8.92448 40668 ft 482 kts 191°
2026-05-06 13:43 49.38735 8.91542 40522 ft 478 kts 191°
2026-05-06 13:43 49.35474 8.90653 39869 ft 476 kts 191°
2026-05-06 13:43 49.32204 8.89764 39023 ft 479 kts 191°
2026-05-06 13:44 49.28918 8.88872 38194 ft 479 kts 191°
2026-05-06 13:44 49.25638 8.87983 37248 ft 478 kts 191°
2026-05-06 13:44 49.22369 8.87098 36412 ft 475 kts 191°
2026-05-06 13:44 49.19129 8.86222 35660 ft 471 kts 192°
2026-05-06 13:45 49.15916 8.85351 34940 ft 466 kts 192°
2026-05-06 13:45 49.09591 8.83625 33439 ft 459 kts 192°
2026-05-06 13:45 49.06436 8.82762 32407 ft 460 kts 191°
2026-05-06 13:46 49.03271 8.81895 31229 ft 465 kts 191°
2026-05-06 13:46 49.00067 8.81020 30075 ft 470 kts 190°
2026-05-06 13:46 48.96845 8.80145 29027 ft 470 kts 190°
2026-05-06 13:46 48.93646 8.79281 28286 ft 464 kts 190°
2026-05-06 13:47 48.90486 8.78431 27584 ft 458 kts 190°
2026-05-06 13:47 48.87364 8.77590 26905 ft 453 kts 190°
2026-05-06 13:47 48.84280 8.76758 26212 ft 448 kts 190°
2026-05-06 13:47 48.81231 8.75940 25542 ft 443 kts 190°
2026-05-06 13:48 48.78206 8.75130 24858 ft 439 kts 190°
2026-05-06 13:48 48.75211 8.74330 24193 ft 436 kts 190°
2026-05-06 13:48 48.72233 8.73534 23512 ft 432 kts 190°
2026-05-06 13:48 48.69286 8.72746 22766 ft 429 kts 190°
2026-05-06 13:49 48.66372 8.71968 22091 ft 423 kts 190°
2026-05-06 13:49 48.63482 8.71197 21436 ft 419 kts 190°
2026-05-06 13:49 48.60636 8.70439 20790 ft 414 kts 190°
2026-05-06 13:49 48.57809 8.69686 20125 ft 410 kts 190°
2026-05-06 13:50 48.55005 8.68940 19460 ft 409 kts 190°
2026-05-06 13:50 48.52221 8.68203 18775 ft 407 kts 190°
2026-05-06 13:50 48.49427 8.67465 18120 ft 404 kts 190°
2026-05-06 13:50 48.46671 8.66735 17387 ft 401 kts 190°
2026-05-06 13:51 48.43933 8.66010 16687 ft 397 kts 190°
2026-05-06 13:51 48.41222 8.65293 16016 ft 394 kts 190°
2026-05-06 13:51 48.38540 8.64584 15332 ft 390 kts 190°
2026-05-06 13:51 48.35878 8.63858 14651 ft 388 kts 191°
2026-05-06 13:52 48.33235 8.63075 13971 ft 385 kts 191°
2026-05-06 13:52 48.30620 8.62269 13261 ft 382 kts 192°
2026-05-06 13:52 48.28031 8.61467 12553 ft 379 kts 192°
2026-05-06 13:52 48.25464 8.60675 11882 ft 375 kts 192°
2026-05-06 13:53 48.22930 8.59903 11433 ft 365 kts 192°
2026-05-06 13:53 48.20504 8.59171 11308 ft 347 kts 192°
2026-05-06 13:53 48.18201 8.58477 11198 ft 329 kts 192°
2026-05-06 13:53 48.16020 8.57822 11092 ft 311 kts 192°
2026-05-06 13:54 48.13952 8.57199 10998 ft 295 kts 192°
2026-05-06 13:54 48.11986 8.56615 10879 ft 281 kts 192°
2026-05-06 13:54 48.10115 8.56062 10757 ft 267 kts 193°
2026-05-06 13:54 48.08319 8.55530 10636 ft 261 kts 193°
2026-05-06 13:55 48.06542 8.55003 10308 ft 259 kts 193°
2026-05-06 13:55 48.04773 8.54477 9978 ft 258 kts 193°
2026-05-06 13:55 48.03015 8.53954 9662 ft 261 kts 194°
2026-05-06 13:55 48.01183 8.53404 9442 ft 275 kts 194°
2026-05-06 13:56 47.99292 8.52837 9265 ft 275 kts 193°
2026-05-06 13:56 47.97419 8.52281 8738 ft 275 kts 193°
2026-05-06 13:56 47.95546 8.51725 8360 ft 273 kts 193°
2026-05-06 13:56 47.93677 8.51215 8075 ft 274 kts 188°
2026-05-06 13:57 47.91806 8.51724 7817 ft 280 kts 155°
2026-05-06 13:57 47.90360 8.53652 7564 ft 284 kts 129°
2026-05-06 13:57 47.89179 8.56038 7316 ft 287 kts 132°
2026-05-06 13:57 47.87887 8.58282 7060 ft 284 kts 137°
2026-05-06 13:58 47.86497 8.60364 6806 ft 282 kts 140°
2026-05-06 13:58 47.85059 8.62330 6554 ft 280 kts 142°
2026-05-06 13:58 47.83591 8.64233 6338 ft 279 kts 143°
2026-05-06 13:58 47.82113 8.66091 6193 ft 278 kts 144°
2026-05-06 13:59 47.80620 8.67936 6358 ft 279 kts 144°
2026-05-06 13:59 47.79122 8.69771 6517 ft 279 kts 144°
2026-05-06 13:59 47.77619 8.71602 6777 ft 280 kts 144°
2026-05-06 13:59 47.76107 8.73437 7182 ft 281 kts 144°
2026-05-06 14:00 47.74584 8.75281 7597 ft 282 kts 145°
2026-05-06 14:00 47.73056 8.77126 7906 ft 284 kts 145°
2026-05-06 14:00 47.71523 8.78979 7949 ft 285 kts 145°
2026-05-06 14:00 47.69983 8.80834 7944 ft 285 kts 145°
2026-05-06 14:01 47.68441 8.82687 7953 ft 285 kts 145°
2026-05-06 14:01 47.67421 8.83918 7955 ft 286 kts 145°
2026-05-06 14:01 47.65874 8.85785 7945 ft 288 kts 146°
2026-05-06 14:01 47.63805 8.88361 7950 ft 293 kts 142°
2026-05-06 14:02 47.62850 8.89778 7949 ft 295 kts 137°
2026-05-06 14:02 47.61560 8.92166 7952 ft 298 kts 129°
2026-05-06 14:02 47.60488 8.94793 7954 ft 300 kts 122°
2026-05-06 14:02 47.59525 8.97538 7951 ft 301 kts 121°
2026-05-06 14:03 47.58573 9.00298 7949 ft 301 kts 121°
2026-05-06 14:03 47.57615 9.03056 7947 ft 296 kts 121°
2026-05-06 14:03 47.56585 9.05493 7899 ft 278 kts 132°
2026-05-06 14:03 47.55226 9.07506 7674 ft 266 kts 148°
2026-05-06 14:04 47.53655 9.08864 7427 ft 259 kts 163°
2026-05-06 14:04 47.51954 9.09600 7180 ft 252 kts 177°
2026-05-06 14:04 47.50234 9.09721 6967 ft 244 kts 190°
2026-05-06 14:04 47.48579 9.09268 6941 ft 240 kts 202°
2026-05-06 14:05 47.47060 9.08311 6940 ft 236 kts 214°
2026-05-06 14:05 47.45739 9.06920 6858 ft 232 kts 225°
2026-05-06 14:05 47.44663 9.05165 6553 ft 228 kts 236°
2026-05-06 14:05 47.43891 9.03163 6355 ft 224 kts 248°
2026-05-06 14:06 47.43413 9.00969 6284 ft 225 kts 258°
2026-05-06 14:06 47.43246 8.98738 6197 ft 213 kts 268°
2026-05-06 14:06 47.43274 8.96596 6125 ft 203 kts 270°
2026-05-06 14:06 47.43329 8.94559 6035 ft 195 kts 271°
2026-05-06 14:07 47.43378 8.92610 5986 ft 185 kts 270°
2026-05-06 14:07 47.43420 8.90729 5876 ft 185 kts 270°
2026-05-06 14:07 47.43461 8.88824 5782 ft 186 kts 270°
2026-05-06 14:07 47.43529 8.86918 5653 ft 186 kts 274°
2026-05-06 14:08 47.43668 8.85019 5403 ft 184 kts 274°
2026-05-06 14:08 47.43804 8.83158 5301 ft 180 kts 274°
2026-05-06 14:08 47.43929 8.81350 5072 ft 174 kts 274°
2026-05-06 14:08 47.44050 8.79576 4824 ft 173 kts 274°
2026-05-06 14:09 47.44175 8.77853 4565 ft 166 kts 274°
2026-05-06 14:09 47.44295 8.76184 4325 ft 158 kts 273°
2026-05-06 14:09 47.44405 8.74634 4087 ft 147 kts 273°
2026-05-06 14:09 47.44508 8.73186 3875 ft 137 kts 273°
2026-05-06 14:10 47.44605 8.71825 3668 ft 129 kts 273°
2026-05-06 14:10 47.44696 8.70544 3485 ft 123 kts 272°
2026-05-06 14:10 47.44784 8.69310 3312 ft 119 kts 272°
2026-05-06 14:10 47.44871 8.68089 3133 ft 120 kts 272°
2026-05-06 14:11 47.44958 8.66869 2955 ft 119 kts 272°
2026-05-06 14:11 47.45040 8.65654 2761 ft 119 kts 270°
2026-05-06 14:11 47.45112 8.64428 2582 ft 122 kts 272°
2026-05-06 14:11 47.45194 8.63172 2381 ft 124 kts 273°
2026-05-06 14:12 47.45292 8.61915 2177 ft 124 kts 273°
2026-05-06 14:12 47.45380 8.60626 2000 ft 125 kts 275°
2026-05-06 14:12 47.45475 8.59374 1804 ft 123 kts 276°
2026-05-06 14:12 47.45575 8.58110 1625 ft 125 kts 275°
2026-05-06 14:13 47.45670 8.56843 1450 ft 123 kts 272°
2026-05-06 14:13 47.45753 8.55654 1418 ft 104 kts 275°
2026-05-06 14:13 47.45807 8.54927 1406 ft 52 kts 276°
2026-05-06 14:13 47.45842 8.54461 1396 ft 35 kts 276°
2026-05-06 14:14 47.45917 8.54270 1404 ft 14 kts 348°
2026-05-06 14:14 47.45958 8.54327 1408 ft 8 kts 90°
2026-05-06 14:14 47.45955 8.54389 1399 ft 3 kts 94°
2026-05-06 14:14 47.45954 8.54392 1399 ft 0 kts 94°
2026-05-06 14:15 47.45954 8.54396 1398 ft 2 kts 97°
2026-05-06 14:16 47.45949 8.54466 1402 ft 11 kts 95°
2026-05-06 14:16 47.45940 8.54601 1401 ft 10 kts 96°
2026-05-06 14:16 47.45931 8.54735 1403 ft 16 kts 96°
2026-05-06 14:16 47.45918 8.54908 1406 ft 15 kts 96°
2026-05-06 14:17 47.45908 8.55058 1401 ft 15 kts 95°
2026-05-06 14:17 47.45968 8.55163 1409 ft 15 kts 33°
2026-05-06 14:17 47.45984 8.55239 1405 ft 9 kts 94°
2026-05-06 14:17 47.45976 8.55349 1412 ft 13 kts 96°
2026-05-06 14:18 47.45974 8.55376 1409 ft 0 kts 96°
2026-05-06 14:18 47.45973 8.55391 1411 ft 4 kts 95°
2026-05-06 14:18 47.45983 8.55425 1412 ft 4 kts 39°
2026-05-06 14:18 47.46027 8.55428 1411 ft 9 kts
2026-05-06 14:19 47.46053 8.55432 1412 ft 2 kts
2026-05-06 14:19 47.46058 8.55433 1411 ft 0 kts